Home > Time Zones > World Clock > Weather > China > Wuhan > Past weeks

Flag for China Weather past 2 weeks in Wuhan, Hubei, China

Now
93 °F

Passing clouds.


Feels Like: 99 °F
Forecast: 80 / 93 °F
Wind: 8 mph from West

Location: Wuhan Airport

Current Time: Aug 4, 2015 at 6:27:06 PM

Latest Report: Aug 4, 2015 at 6:00 PM


Visibility: N/A

Pressure: 29.62 "Hg

Humidity: 47%

Dew point: 70 °F

Location of WuhanLocation

Historic Weather in Wuhan — Graph

°F

Wuhan temperature yesterday

Maximum temperature yesterday: 97 °F (at 3:00 PM)
Minimum temperature yesterday: 86 °F (at 6:00 AM)
Average temperature yesterday: 91 °F

Past Weeks' High & Low Weather Summary

 TemperatureHumidityPressure
High97 °F (Aug 1, 4:00 PM)100% (Jul 23, 7:00 AM)29.77 "Hg (Jul 23, 7:00 AM)
Low72 °F (Jul 23, 2:00 PM)44% (Aug 1, 4:00 PM)29.56 "Hg (Jul 22, 5:00 PM)
Average86 °F72%29.67 "Hg
* Reported Jul 20 5:00 PM — Aug 4 5:00 PM, Wuhan, Weather by CustomWeather, © 2015

Note: Actual official high and low records may vary slightly from our data, if they occured in-between our weather recording intervals... More about our weather records

Advertising

Wuhan weather history for previous 24 hours

 ConditionsComfort  
Time TempWeatherWind HumidityBarometerVisibility
5:00 PM
Tue, Aug 4
95 °FPassing clouds.10 mph44%29.62 "HgN/A
4:00 PM97 °FPassing clouds.10 mph44%29.62 "HgN/A
3:00 PM97 °FSunny.13 mph44%29.65 "Hg10 mi
2:00 PM97 °FSunny.13 mph44%29.65 "Hg10 mi
1:00 PM95 °FSunny.15 mph50%29.68 "Hg10 mi
12:00 PM95 °FSunny.15 mph50%29.68 "Hg10 mi
11:00 AM93 °FSunny.17 mph53%29.68 "Hg10 mi
10:00 AM91 °FSunny.17 mph59%29.68 "Hg10 mi
9:00 AM90 °FSunny.15 mph63%29.68 "Hg10 mi
8:00 AM88 °FSunny.13 mph66%29.68 "Hg10 mi
7:00 AM86 °FSunny.10 mph70%29.65 "Hg10 mi
6:00 AM84 °FSunny.10 mph74%29.65 "Hg10 mi
5:00 AM86 °FClear.13 mph70%29.65 "Hg10 mi
4:00 AM86 °FClear.10 mph70%29.65 "Hg10 mi
3:00 AM86 °FClear.15 mph66%29.65 "Hg10 mi
2:00 AM88 °FClear.15 mph62%29.65 "Hg10 mi
1:00 AM88 °FClear.8 mph62%29.65 "Hg10 mi
12:00 AM90 °FClear.13 mph59%29.65 "Hg10 mi
11:00 PM
Mon, Aug 3
90 °FClear.10 mph59%29.68 "Hg10 mi
10:00 PM90 °FClear.10 mph59%29.65 "Hg10 mi
9:00 PM90 °FClear.8 mph59%29.65 "Hg10 mi
8:00 PM90 °FClear.10 mph59%29.62 "Hg10 mi
7:00 PM91 °FSunny.10 mph56%29.62 "Hg10 mi
6:00 PM95 °FSunny.15 mph50%29.62 "Hg10 mi
Weather by CustomWeather, © 2015

See weather overviewHow to use our weather pages